Radiation Dose at Monitoring Post of Fukushima Daini Nuclear Power Station
Date,Time,MP-1(microSv/h),MP-2(microSv/h),MP-3(microSv/h),MP-4(microSv/h),MP-5(microSv/h),MP-6(microSv/h),MP-7(microSv/h),Wind Direction,Wind Velocity(m/s),Rain
2022/03/13,00:00,0.162,0.148,0.237,0.228,0.227,0.128,0.081,northwest,1.8,No
2022/03/13,00:10,0.162,0.148,0.238,0.227,0.226,0.128,0.081,north-northwest,2.4,No
2022/03/13,00:20,0.161,0.148,0.237,0.228,0.226,0.128,0.081,northwest,2.7,No
2022/03/13,00:30,0.162,0.149,0.236,0.228,0.227,0.128,0.081,north-northwest,3.3,No
2022/03/13,00:40,0.162,0.148,0.236,0.228,0.226,0.128,0.081,northwest,3.8,No
2022/03/13,00:50,0.162,0.149,0.237,0.227,0.226,0.128,0.081,northwest,4.4,No
2022/03/13,01:00,0.163,0.148,0.237,0.227,0.227,0.127,0.081,northwest,4.7,No
2022/03/13,01:10,0.162,0.148,0.236,0.228,0.227,0.128,0.081,north-northwest,2.5,No
2022/03/13,01:20,0.162,0.147,0.237,0.227,0.226,0.128,0.081,north,1.1,No
2022/03/13,01:30,0.162,0.148,0.235,0.227,0.227,0.129,0.081,-,CALM,No
2022/03/13,01:40,0.162,0.147,0.238,0.227,0.227,0.128,0.081,north-northeast,1.0,No
2022/03/13,01:50,0.162,0.148,0.236,0.228,0.225,0.128,0.082,-,CALM,No
2022/03/13,02:00,0.161,0.147,0.236,0.228,0.226,0.128,0.082,-,CALM,No
2022/03/13,02:10,0.163,0.149,0.237,0.227,0.227,0.128,0.081,-,CALM,No
2022/03/13,02:20,0.162,0.148,0.237,0.226,0.225,0.128,0.081,-,CALM,No
2022/03/13,02:30,0.162,0.147,0.237,0.227,0.226,0.128,0.082,-,CALM,No
2022/03/13,02:40,0.163,0.148,0.237,0.229,0.227,0.128,0.081,-,CALM,No
2022/03/13,02:50,0.163,0.148,0.237,0.228,0.227,0.128,0.081,west-northwest,0.7,No
2022/03/13,03:00,0.162,0.148,0.237,0.228,0.226,0.129,0.082,-,CALM,No
2022/03/13,03:10,0.162,0.147,0.236,0.228,0.226,0.128,0.081,-,CALM,No
2022/03/13,03:20,0.161,0.148,0.236,0.229,0.227,0.128,0.081,-,CALM,No
2022/03/13,03:30,0.163,0.149,0.238,0.227,0.227,0.128,0.082,northwest,0.5,No
2022/03/13,03:40,0.163,0.148,0.236,0.228,0.226,0.129,0.081,north-northwest,0.8,No
2022/03/13,03:50,0.163,0.149,0.237,0.227,0.227,0.128,0.081,northwest,1.1,No
2022/03/13,04:00,0.163,0.148,0.237,0.227,0.227,0.129,0.081,north-northwest,1.3,No
2022/03/13,04:10,0.162,0.149,0.237,0.228,0.226,0.128,0.081,northwest,0.8,No
2022/03/13,04:20,0.162,0.148,0.237,0.228,0.227,0.129,0.081,north-northwest,0.7,No
2022/03/13,04:30,0.162,0.148,0.237,0.228,0.228,0.128,0.081,-,CALM,No
2022/03/13,04:40,0.162,0.149,0.237,0.228,0.226,0.128,0.081,-,CALM,No
2022/03/13,04:50,0.163,0.149,0.237,0.228,0.226,0.128,0.081,-,CALM,No
2022/03/13,05:00,0.163,0.148,0.237,0.227,0.227,0.129,0.081,north-northeast,0.7,No
2022/03/13,05:10,0.163,0.148,0.237,0.227,0.227,0.129,0.081,northeast,0.5,No
2022/03/13,05:20,0.162,0.148,0.237,0.226,0.227,0.128,0.082,-,CALM,No
2022/03/13,05:30,0.163,0.148,0.237,0.228,0.226,0.128,0.082,-,CALM,No
2022/03/13,05:40,0.163,0.148,0.238,0.228,0.227,0.128,0.081,-,CALM,No
2022/03/13,05:50,0.161,0.148,0.237,0.227,0.226,0.128,0.082,north,0.5,No
2022/03/13,06:00,0.163,0.149,0.236,0.227,0.226,0.128,0.081,-,CALM,No
2022/03/13,06:10,0.162,0.148,0.238,0.228,0.226,0.129,0.082,northeast,0.5,No
2022/03/13,06:20,0.163,0.148,0.237,0.228,0.226,0.128,0.081,-,CALM,No
2022/03/13,06:30,0.162,0.147,0.236,0.227,0.226,0.129,0.081,-,CALM,No
2022/03/13,06:40,0.163,0.147,0.237,0.226,0.227,0.129,0.081,north,0.7,No
2022/03/13,06:50,0.162,0.148,0.238,0.227,0.226,0.128,0.081,north,1.4,No
2022/03/13,07:00,0.162,0.149,0.237,0.228,0.225,0.128,0.082,north-northeast,1.8,No
2022/03/13,07:10,0.162,0.148,0.237,0.227,0.227,0.128,0.082,north-northeast,1.0,No
2022/03/13,07:20,0.163,0.149,0.237,0.228,0.226,0.128,0.082,north-northwest,2.7,No
2022/03/13,07:30,0.162,0.148,0.238,0.227,0.226,0.128,0.082,north-northwest,3.0,No
2022/03/13,07:40,0.163,0.149,0.236,0.227,0.228,0.128,0.082,northwest,3.3,No
2022/03/13,07:50,0.164,0.148,0.236,0.226,0.225,0.129,0.081,northwest,2.2,No
2022/03/13,08:00,0.162,0.147,0.237,0.228,0.227,0.130,0.081,north-northwest,1.9,No
2022/03/13,08:10,0.162,0.148,0.236,0.227,0.227,0.128,0.081,north-northwest,1.0,No
2022/03/13,08:20,0.162,0.148,0.236,0.227,0.226,0.128,0.080,west-southwest,0.5,No
2022/03/13,08:30,0.162,0.148,0.237,0.228,0.227,0.128,0.082,-,CALM,No
2022/03/13,08:40,0.163,0.149,0.236,0.227,0.225,0.129,0.082,-,CALM,No
2022/03/13,08:50,0.163,0.148,0.237,0.228,0.229,0.129,0.081,-,CALM,No
2022/03/13,09:00,0.164,0.148,0.238,0.229,0.227,0.127,0.082,east,0.8,No
2022/03/13,09:10,0.164,0.148,0.237,0.227,0.227,0.129,0.082,east-northeast,0.8,No
2022/03/13,09:20,0.163,0.148,0.237,0.228,0.227,0.128,0.082,east-northeast,1.8,No
2022/03/13,09:30,0.164,0.149,0.238,0.226,0.225,0.129,0.082,northeast,1.4,No
2022/03/13,09:40,0.162,0.149,0.237,0.227,0.228,0.129,0.082,northeast,1.9,No
2022/03/13,09:50,0.162,0.149,0.237,0.228,0.226,0.129,0.081,northeast,2.9,No
2022/03/13,10:00,0.163,0.148,0.238,0.228,0.229,0.128,0.081,north-northeast,1.3,No
2022/03/13,10:10,0.163,0.149,0.237,0.230,0.226,0.128,0.081,north,1.9,No
2022/03/13,10:20,0.162,0.149,0.237,0.228,0.227,0.128,0.082,north,2.1,No
2022/03/13,10:30,0.163,0.149,0.238,0.227,0.227,0.129,0.082,north-northwest,1.3,No
2022/03/13,10:40,0.163,0.149,0.236,0.228,0.226,0.128,0.081,northwest,1.9,No
2022/03/13,10:50,0.163,0.149,0.238,0.228,0.228,0.128,0.082,north-northwest,1.3,No
2022/03/13,11:00,0.162,0.148,0.236,0.228,0.226,0.128,0.081,north,2.4,No
2022/03/13,11:10,0.163,0.149,0.237,0.227,0.227,0.128,0.081,north,3.0,No
2022/03/13,11:20,0.162,0.149,0.237,0.227,0.226,0.128,0.082,north,3.0,No
2022/03/13,11:30,0.162,0.149,0.237,0.227,0.227,0.128,0.081,north-northwest,3.0,No
2022/03/13,11:40,0.162,0.148,0.236,0.226,0.226,0.128,0.081,north,3.2,No
2022/03/13,11:50,0.162,0.147,0.235,0.228,0.227,0.128,0.081,north,2.4,No
2022/03/13,12:00,0.162,0.148,0.237,0.226,0.224,0.128,0.081,north,2.2,No
2022/03/13,12:10,0.162,0.148,0.235,0.228,0.226,0.127,0.081,north,2.5,No
2022/03/13,12:20,0.162,0.148,0.237,0.227,0.226,0.129,0.081,north,3.0,No
2022/03/13,12:30,0.161,0.148,0.237,0.228,0.226,0.128,0.081,north,3.2,No
2022/03/13,12:40,0.163,0.148,0.236,0.227,0.226,0.129,0.080,north-northeast,2.7,No
2022/03/13,12:50,0.161,0.148,0.238,0.228,0.226,0.128,0.081,north,4.4,No
2022/03/13,13:00,0.163,0.149,0.236,0.228,0.227,0.129,0.080,north,4.3,No
2022/03/13,13:10,0.162,0.148,0.237,0.228,0.226,0.128,0.080,north,4.6,No
2022/03/13,13:20,0.161,0.149,0.235,0.228,0.227,0.127,0.081,north,4.8,No
2022/03/13,13:30,0.162,0.148,0.237,0.227,0.228,0.128,0.081,north,4.1,No
2022/03/13,13:40,0.162,0.148,0.236,0.228,0.227,0.129,0.081,north,4.1,No
2022/03/13,13:50,0.162,0.148,0.236,0.228,0.226,0.128,0.082,north,4.4,No
2022/03/13,14:00,0.162,0.147,0.237,0.228,0.225,0.128,0.080,north,4.7,No
2022/03/13,14:10,0.162,0.147,0.236,0.227,0.227,0.128,0.081,north,4.7,No
2022/03/13,14:20,0.161,0.148,0.238,0.229,0.226,0.128,0.081,north,5.2,No
2022/03/13,14:30,0.161,0.148,0.236,0.227,0.227,0.128,0.080,north,5.5,No
2022/03/13,14:40,0.162,0.148,0.238,0.228,0.226,0.127,0.081,north,6.2,No
2022/03/13,14:50,0.162,0.148,0.238,0.228,0.227,0.129,0.081,north,4.4,No
2022/03/13,15:00,0.163,0.148,0.236,0.228,0.226,0.128,0.081,north,5.4,No
2022/03/13,15:10,0.162,0.148,0.239,0.228,0.227,0.128,0.081,north,4.6,No
2022/03/13,15:20,0.163,0.147,0.237,0.227,0.225,0.128,0.081,north,5.4,No
2022/03/13,15:30,0.162,0.147,0.237,0.228,0.227,0.128,0.081,north,5.4,No
2022/03/13,15:40,0.162,0.148,0.238,0.228,0.226,0.128,0.082,north,5.8,No
2022/03/13,15:50,0.162,0.147,0.237,0.228,0.227,0.128,0.081,north,5.9,No
2022/03/13,16:00,0.163,0.147,0.237,0.229,0.227,0.128,0.081,north,5.8,No
2022/03/13,16:10,0.161,0.148,0.237,0.228,0.227,0.129,0.081,north,5.2,No
2022/03/13,16:20,0.163,0.149,0.237,0.229,0.227,0.128,0.080,north,6.1,No
2022/03/13,16:30,0.163,0.148,0.237,0.229,0.227,0.129,0.081,north,6.4,No
2022/03/13,16:40,0.163,0.148,0.238,0.229,0.228,0.129,0.082,north,6.6,No
2022/03/13,16:50,0.163,0.148,0.237,0.228,0.228,0.128,0.082,north,5.5,No
2022/03/13,17:00,0.163,0.149,0.238,0.228,0.226,0.129,0.081,north,4.8,No
2022/03/13,17:10,0.163,0.149,0.238,0.227,0.228,0.129,0.082,north,4.1,No
2022/03/13,17:20,0.162,0.149,0.237,0.228,0.227,0.128,0.081,north,4.1,No
2022/03/13,17:30,0.162,0.147,0.237,0.228,0.226,0.129,0.082,north,3.8,No
2022/03/13,17:40,0.162,0.148,0.237,0.229,0.227,0.129,0.082,north,3.8,No
2022/03/13,17:50,0.163,0.149,0.238,0.228,0.227,0.129,0.082,north,3.7,No
2022/03/13,18:00,0.163,0.148,0.237,0.229,0.225,0.128,0.082,north-northwest,3.5,No
2022/03/13,18:10,0.164,0.148,0.236,0.229,0.228,0.128,0.082,north-northwest,2.9,No
2022/03/13,18:20,0.163,0.149,0.237,0.226,0.226,0.128,0.080,north,2.5,No
2022/03/13,18:30,0.164,0.148,0.238,0.228,0.227,0.129,0.081,north-northwest,2.4,No
2022/03/13,18:40,0.163,0.148,0.237,0.229,0.227,0.129,0.082,north,2.7,No
2022/03/13,18:50,0.162,0.148,0.236,0.229,0.227,0.128,0.081,northwest,2.4,No
2022/03/13,19:00,0.162,0.148,0.238,0.227,0.226,0.128,0.081,north-northwest,2.4,No
2022/03/13,19:10,0.162,0.149,0.237,0.228,0.226,0.128,0.080,north-northwest,2.4,No
2022/03/13,19:20,0.162,0.148,0.236,0.228,0.227,0.129,0.081,north-northwest,2.7,No
2022/03/13,19:30,0.162,0.149,0.236,0.228,0.226,0.129,0.081,north,1.9,No
2022/03/13,19:40,0.163,0.148,0.239,0.228,0.227,0.128,0.081,north,1.6,No
2022/03/13,19:50,0.162,0.149,0.238,0.228,0.226,0.129,0.081,north-northwest,1.8,No
2022/03/13,20:00,0.163,0.149,0.237,0.228,0.225,0.128,0.081,north-northwest,1.1,No
2022/03/13,20:10,0.162,0.148,0.238,0.227,0.227,0.128,0.082,-,CALM,No
2022/03/13,20:20,0.162,0.148,0.237,0.228,0.227,0.129,0.081,north-northeast,0.5,No
2022/03/13,20:30,0.163,0.149,0.238,0.228,0.226,0.129,0.082,north,0.8,No
2022/03/13,20:40,0.162,0.148,0.237,0.227,0.227,0.129,0.081,north-northeast,0.5,No
2022/03/13,20:50,0.163,0.149,0.237,0.228,0.228,0.129,0.081,-,CALM,No
2022/03/13,21:00,0.162,0.148,0.238,0.229,0.226,0.128,0.082,-,CALM,No
2022/03/13,21:10,0.162,0.149,0.238,0.228,0.228,0.129,0.081,-,CALM,No
2022/03/13,21:20,0.162,0.149,0.238,0.227,0.226,0.128,0.082,-,CALM,No
2022/03/13,21:30,0.162,0.149,0.238,0.228,0.225,0.129,0.082,east,0.5,No
2022/03/13,21:40,0.162,0.150,0.237,0.227,0.228,0.129,0.082,-,CALM,No
2022/03/13,21:50,0.163,0.148,0.239,0.228,0.226,0.128,0.082,-,CALM,No
2022/03/13,22:00,0.163,0.149,0.238,0.228,0.226,0.129,0.082,-,CALM,No
2022/03/13,22:10,0.161,0.148,0.238,0.228,0.227,0.129,0.082,east-northeast,1.0,No
2022/03/13,22:20,0.162,0.149,0.239,0.229,0.227,0.128,0.082,-,CALM,No
2022/03/13,22:30,0.163,0.148,0.238,0.228,0.227,0.129,0.082,-,CALM,No
2022/03/13,22:40,0.163,0.148,0.238,0.228,0.227,0.128,0.082,east-southeast,0.7,No
2022/03/13,22:50,0.162,0.148,0.237,0.229,0.227,0.129,0.081,-,CALM,No
2022/03/13,23:00,0.163,0.148,0.237,0.228,0.227,0.128,0.081,-,CALM,No
2022/03/13,23:10,0.162,0.149,0.238,0.227,0.227,0.128,0.082,southeast,0.5,No
2022/03/13,23:20,0.162,0.147,0.238,0.228,0.227,0.130,0.082,southeast,0.7,No
2022/03/13,23:30,0.163,0.148,0.237,0.229,0.227,0.128,0.082,east-southeast,0.7,No
2022/03/13,23:40,0.163,0.149,0.239,0.229,0.227,0.129,0.081,south-southeast,0.8,No
2022/03/13,23:50,0.162,0.149,0.239,0.227,0.227,0.129,0.081,southeast,0.8,No
